Theta_e
323 323 319 309 307 306 306 306 307 311 311 310 311 311 312 312 313 311 311 311 310 308 306 308 310 310 309 317 318 315 318 316 316 321 324 327 337 340 337 334 346 350 347 347 347 345 348
323 322 322 314 308 307 306 306 306 308 311 311 310 311 312 312 313 310 310 310 310 307 307 309 311 310 316 312 312 320 318 315 322 318 322 327 338 339 334 331 332 336 344 344 343 342 348
322 321 322 321 311 307 307 306 306 307 310 312 311 311 311 313 313 310 309 310 309 307 307 310 312 315 320 313 317 324 323 323 321 322 330 329 333 337 330 330 329 330 345 344 343 339 352
322 321 321 322 317 309 307 307 306 306 309 312 312 311 312 313 313 310 310 310 308 309 310 311 313 320 313 312 318 317 319 317 319 324 329 334 332 329 329 329 327 328 328 331 333 334 348
323 321 321 320 320 311 308 307 307 306 308 312 312 311 313 313 313 310 310 310 314 313 310 311 317 321 321 323 318 317 317 317 316 319 326 331 327 325 328 329 325 324 329 329 329 335 347
323 322 320 320 320 314 308 307 307 306 307 312 312 312 313 313 312 309 311 315 319 316 316 319 319 319 320 323 318 317 316 317 314 319 321 324 321 322 322 324 328 327 328 326 329 335 348
323 322 322 321 320 316 310 308 307 306 307 311 312 312 312 313 311 310 313 316 308 312 320 323 323 321 321 319 318 318 316 314 314 316 317 325 323 322 324 325 327 326 326 326 326 329 349
324 322 323 323 321 318 313 308 307 307 307 312 312 311 312 313 311 311 314 314 313 313 311 312 316 318 319 321 315 315 317 315 315 314 316 316 325 322 322 325 328 328 327 325 324 331 347
324 324 323 322 322 321 317 312 308 307 306 311 312 311 311 312 312 317 315 317 315 315 311 312 313 314 314 313 314 314 313 313 315 314 314 314 316 327 327 325 325 325 324 322 324 344 349
325 324 324 323 322 322 322 318 312 307 306 311 312 311 311 312 314 313 316 317 316 315 309 313 316 315 314 313 313 314 314 313 313 313 313 314 316 320 327 326 323 319 322 323 324 338 353
323 324 325 324 323 322 322 321 314 308 306 311 312 311 310 311 312 313 319 317 317 313 316 317 315 316 313 312 314 316 315 314 314 314 312 314 317 318 320 321 323 323 323 322 324 334 344
323 323 324 324 324 322 322 321 315 307 307 312 312 310 311 311 311 318 317 316 315 312 318 317 316 315 314 314 315 316 315 314 314 315 314 313 315 315 316 318 321 323 324 322 321 325 341
321 323 323 323 323 322 322 321 314 307 307 312 311 312 312 311 313 316 314 312 314 315 316 316 316 315 314 314 315 314 314 313 310 313 312 313 314 316 317 319 320 324 320 323 323 321 323
321 321 323 322 321 322 321 321 313 307 308 312 311 313 316 316 314 313 315 313 319 320 314 315 314 313 315 314 314 314 313 312 312 310 310 311 312 317 318 317 318 323 320 321 326 323 323
322 322 321 322 321 321 323 321 316 307 309 311 311 313 316 318 316 313 310 316 318 314 314 314 314 314 314 315 317 316 313 312 316 315 310 315 316 317 319 319 321 322 324 320 321 320 320
323 323 322 322 322 321 321 321 317 307 310 310 311 314 317 319 320 315 311 316 315 314 313 313 314 315 314 315 317 316 314 313 315 314 312 315 314 314 317 317 318 320 320 324 319 325 325
325 325 324 323 322 322 321 321 316 306 311 309 314 316 320 319 319 309 313 314 313 313 313 313 313 314 314 314 315 315 314 314 313 314 313 313 310 311 316 316 317 317 318 317 317 318 322
326 326 325 324 322 322 321 320 311 307 309 309 311 320 321 316 312 310 315 317 313 314 311 312 313 313 314 314 315 317 315 314 313 316 316 315 313 315 314 314 317 316 317 316 318 321 321
327 326 325 324 322 322 321 320 308 308 307 307 310 314 321 317 314 312 313 317 313 314 312 313 313 313 313 313 314 316 316 314 314 314 313 312 313 313 312 315 315 318 319 317 317 318 323
324 325 324 323 322 322 320 319 307 308 307 308 311 321 313 311 309 313 314 314 315 315 314 313 312 311 312 312 312 316 317 316 314 315 319 313 312 313 316 317 316 318 319 320 316 318 321
325 326 325 323 322 321 321 319 306 308 307 308 313 319 312 312 312 314 314 317 315 316 313 311 312 311 312 314 314 315 314 314 314 316 311 310 314 316 315 316 317 317 319 321 321 316 321
326 326 325 323 321 320 320 317 305 308 308 311 316 312 311 308 310 314 314 314 314 312 312 312 312 313 312 314 314 315 312 312 313 311 311 309 312 315 316 317 317 319 318 320 324 343 320
327 326 325 321 320 319 320 311 305 307 309 314 317 313 310 310 312 313 313 314 316 313 311 312 312 312 311 311 311 310 309 308 309 312 310 311 312 315 318 317 319 317 319 322 345 344 342
327 326 324 321 319 319 319 307 308 307 308 310 314 314 313 316 314 311 314 315 315 313 312 311 311 312 312 308 309 309 309 308 308 309 307 310 309 313 317 317 319 316 331 337 343 342 342
326 324 323 320 319 320 314 305 308 307 307 309 311 313 312 316 316 312 311 309 311 312 313 312 312 310 307 309 309 310 309 308 310 310 310 306 308 311 316 317 316 326 335 336 335 343 339
323 320 319 319 320 319 312 305 308 307 307 310 314 314 313 314 312 312 311 310 310 308 312 312 310 310 311 310 312 315 315 316 317 317 308 308 306 311 312 318 320 330 334 333 332 345 336
321 319 319 319 319 318 309 305 308 307 307 310 314 314 315 315 310 312 312 311 309 310 310 310 313 314 313 309 310 314 317 317 321 321 316 310 309 311 312 315 318 332 333 333 337 340 335
320 318 317 317 318 318 306 306 308 307 307 310 315 313 315 312 311 309 311 313 312 310 311 311 312 312 312 312 307 313 316 320 318 318 319 315 313 311 311 315 318 329 333 339 335 333 333
319 317 316 317 316 314 306 308 307 307 307 310 314 314 312 313 311 312 311 312 314 313 310 310 312 312 311 308 307 309 311 312 316 320 317 321 316 317 320 327 327 326 327 327 328 328 328
Wind_Speed
29 28 26 23 24 27 29 29 29 26 24 24 26 29 30 31 31 28 24 22 22 22 17 15 13 12 3 3 8 6 8 8 6 11 9 5 5 6 4 3 6 11 9 8 13 9 18
29 26 26 23 24 26 28 29 29 29 26 26 27 30 31 33 33 30 25 23 22 19 14 13 10 7 3 3 3 10 11 9 6 11 7 6 6 3 5 4 5 6 13 7 10 8 2
28 27 26 25 23 26 28 30 31 31 28 27 28 30 32 34 34 31 28 25 21 15 14 9 6 1 0 13 3 8 11 6 7 10 5 17 11 0 6 8 2 6 5 7 12 4 19
30 28 26 25 22 24 26 29 32 33 31 29 29 31 34 34 34 33 30 24 18 15 9 4 3 2 6 7 9 10 17 13 10 13 15 13 14 6 5 3 8 4 1 3 11 5 10
31 30 26 25 23 23 27 29 32 34 34 31 31 32 35 34 33 32 29 24 17 3 1 2 1 3 8 13 5 12 13 12 8 15 20 17 6 2 4 3 5 5 3 4 9 8 11
32 31 29 24 22 22 26 29 32 35 35 31 32 34 34 34 32 30 24 18 7 3 4 2 4 3 6 2 6 10 13 11 5 3 3 1 3 2 4 4 5 4 3 5 6 1 12
29 32 31 29 25 24 25 28 31 34 36 32 33 33 32 33 28 25 24 4 5 3 2 6 5 4 9 13 3 3 6 9 1 3 4 2 3 5 8 5 6 4 5 7 11 11 12
28 29 32 31 28 26 26 29 31 34 35 33 33 33 33 31 26 18 12 2 3 5 7 8 13 11 26 11 4 4 2 3 5 4 2 3 6 9 7 7 8 9 6 11 10 11 6
27 27 29 31 31 29 28 30 32 35 36 33 32 32 33 29 21 5 13 9 9 9 2 8 6 5 6 8 6 7 8 4 3 3 3 7 7 11 8 8 8 11 9 2 9 6 10
26 26 28 30 33 34 30 29 31 35 36 33 32 32 31 30 4 15 5 17 12 8 4 7 3 5 4 6 4 8 16 6 4 8 6 6 12 9 12 9 8 10 7 12 8 3 4
27 28 29 30 33 38 31 29 31 34 37 34 31 34 30 14 13 7 9 21 20 4 4 3 3 4 5 7 1 2 9 4 6 6 6 10 5 6 10 12 7 11 7 10 4 7 6
27 28 30 33 35 38 34 30 32 35 37 36 36 34 25 5 8 10 17 25 4 4 1 4 5 5 4 2 3 2 4 3 3 2 2 8 6 6 9 14 8 10 3 5 4 5 2
27 28 30 31 34 37 36 31 32 37 39 38 38 31 17 8 5 8 20 5 5 3 6 5 2 1 3 4 4 5 4 3 5 2 5 6 7 4 6 5 5 5 6 2 3 1 5
28 28 29 30 33 34 37 32 33 37 38 39 38 25 9 14 5 7 11 5 6 3 4 2 5 3 2 1 6 8 6 3 3 4 1 1 8 2 1 8 9 7 9 6 6 4 4
29 29 30 31 32 33 35 34 35 39 38 38 32 17 8 7 6 5 5 5 3 2 4 7 7 7 7 8 4 6 7 5 2 3 7 1 5 7 1 3 8 5 2 8 6 2 4
31 30 30 31 31 31 32 33 33 37 38 30 24 10 8 6 6 5 5 3 2 1 3 5 6 6 7 7 9 8 7 5 2 6 2 2 3 3 7 6 3 7 5 2 4 2 2
32 31 31 29 30 30 32 34 30 34 36 23 8 4 3 11 11 5 2 5 2 1 4 4 2 3 4 4 5 5 6 2 7 8 8 5 3 7 3 3 3 7 2 6 5 5 5
33 32 31 29 27 26 28 28 25 29 33 19 8 2 3 13 3 1 2 4 4 3 8 8 6 6 3 5 5 4 3 4 8 4 4 3 3 3 6 6 4 5 5 5 5 5 1
31 30 30 24 22 24 25 22 23 21 22 13 3 3 7 4 1 3 5 2 6 5 5 4 6 5 3 5 5 5 4 3 5 5 3 4 4 4 11 7 6 5 5 5 3 4 6
26 26 25 20 17 21 22 19 20 18 16 12 2 3 4 4 0 3 3 5 4 7 7 5 5 7 6 8 8 5 9 7 9 2 4 4 3 5 5 6 5 7 11 6 2 4 4
23 23 22 17 15 18 19 16 18 16 16 6 1 3 3 2 4 3 3 3 4 3 5 8 7 7 3 6 5 6 7 7 7 10 8 4 1 3 6 7 4 6 10 10 3 7 6
23 21 21 16 14 15 18 13 15 14 14 1 1 3 4 3 4 5 3 4 8 3 4 3 5 11 10 5 3 3 5 5 2 9 8 7 3 5 3 5 7 9 12 9 5 10 4
24 23 21 14 13 15 16 11 10 10 7 2 4 4 3 4 4 3 1 3 4 5 4 7 6 5 8 4 3 4 4 5 6 2 4 4 3 5 4 5 4 7 6 3 7 14 6
23 22 20 13 11 13 9 9 7 7 6 2 2 3 3 4 2 4 8 10 8 4 5 4 8 5 3 5 4 4 4 5 6 8 5 4 2 2 4 5 4 2 10 10 12 19 19
25 22 17 12 10 8 7 8 3 4 4 3 3 3 2 2 1 1 9 7 6 2 3 6 2 4 3 7 4 5 6 7 4 7 8 6 2 2 1 2 5 3 9 6 4 7 16
21 17 13 12 10 9 6 6 4 4 3 3 2 4 1 1 4 5 5 5 4 2 1 3 1 4 6 3 4 2 1 2 5 10 8 3 4 4 2 1 4 2 11 12 3 3 15
17 14 11 13 10 10 6 5 4 5 3 1 3 2 1 1 4 3 3 1 2 3 2 3 3 3 4 2 3 2 2 2 3 5 6 2 1 5 3 3 5 13 13 11 4 1 9
17 13 12 13 13 11 8 4 5 4 2 1 2 2 1 1 5 5 5 3 4 4 4 3 4 5 4 4 3 2 1 1 2 3 4 2 2 4 2 1 5 22 5 5 2 4 3
17 13 13 14 14 14 7 6 6 5 2 1 1 2 4 3 5 4 6 6 6 1 5 5 5 3 3 4 1 1 2 2 2 2 6 1 4 3 2 3 4 7 11 12 11 3 5
Wind_Direction
7 5 3 1 2 3 4 2 359 354 350 348 346 345 346 345 342 339 333 327 326 326 324 325 332 336 359 17 252 237 175 177 191 171 201 199 198 187 223 188 169 230 270 222 212 193 179
3 2 3 0 1 1 1 1 359 356 350 346 344 343 343 343 341 338 330 324 325 325 323 318 333 340 82 289 236 211 175 169 168 169 199 213 222 202 272 246 179 251 268 208 211 212 203
6 3 1 0 357 358 358 359 358 356 351 344 343 342 341 340 338 337 330 326 326 322 318 301 338 36 115 236 160 176 182 182 210 198 180 226 249 276 336 319 280 281 283 285 278 107 155
8 2 356 357 355 355 357 357 357 355 352 345 342 341 339 339 338 336 330 327 322 312 307 274 5 155 245 276 288 275 209 275 238 231 230 237 256 259 210 290 345 346 66 193 259 102 159
7 5 2 352 353 351 354 355 354 353 351 346 342 341 338 337 337 335 328 329 317 307 277 201 173 196 271 313 250 236 238 228 256 244 237 255 271 249 337 27 360 358 234 250 305 156 169
2 5 4 358 355 350 351 352 352 352 350 345 342 339 338 336 337 336 330 342 3 106 124 75 268 297 280 256 232 232 223 230 236 253 314 120 36 34 17 87 220 228 217 289 243 42 157
0 2 3 359 354 350 348 350 350 350 349 345 342 340 338 335 338 336 339 9 13 3 172 202 203 249 293 328 302 112 206 233 9 84 179 209 99 205 235 214 241 268 293 281 301 296 187
358 360 3 2 358 350 347 347 348 349 349 346 343 342 339 333 335 328 335 14 204 253 308 242 245 243 257 257 291 303 202 141 136 199 210 18 201 224 224 250 251 265 277 286 287 285 135
355 354 357 1 359 352 345 344 346 346 347 345 343 342 339 331 329 360 320 282 325 350 9 295 226 214 226 157 210 258 142 165 181 229 199 186 228 222 225 252 239 259 234 258 243 348 64
351 350 351 354 354 353 344 340 342 343 345 344 342 341 339 333 338 335 275 346 341 346 50 281 213 260 149 140 269 213 187 152 182 206 226 216 246 206 235 243 190 245 228 236 248 161 168
347 346 348 349 348 348 343 339 339 342 342 341 340 339 335 333 307 303 325 338 335 51 53 195 219 192 145 143 329 318 158 91 194 230 103 249 224 206 236 239 194 242 222 232 171 202 132
342 343 345 345 345 347 345 340 339 340 340 340 336 337 329 298 289 282 324 329 343 47 21 203 158 190 97 257 270 331 140 104 141 236 142 225 253 194 221 248 232 252 279 50 44 108 126
337 338 339 343 343 345 345 340 339 339 340 340 334 337 312 260 231 300 323 5 54 100 334 6 330 192 172 233 276 178 193 181 167 54 326 323 280 262 195 255 307 186 75 307 353 55 201
333 332 333 336 339 341 345 340 338 339 340 341 332 334 312 273 264 300 346 55 71 303 342 348 354 4 103 141 242 209 148 210 281 90 108 207 316 7 297 185 207 209 154 154 183 183 224
328 328 329 329 335 338 339 342 337 337 340 341 333 335 297 242 241 250 62 62 217 20 335 352 351 34 357 350 324 8 159 347 88 134 159 108 271 304 142 298 153 229 127 186 120 107 88
324 325 325 325 327 332 334 338 335 335 338 343 326 325 279 186 228 108 69 236 191 48 357 33 46 45 19 333 12 19 18 327 349 16 112 233 326 280 307 360 4 160 168 88 13 189 211
321 323 321 321 320 328 334 335 334 335 339 345 329 348 212 183 175 60 147 235 122 134 98 88 55 10 9 360 353 24 354 6 1 331 58 3 102 290 13 44 11 335 46 67 114 134 166
317 319 321 318 316 324 331 334 337 342 349 354 342 349 224 168 45 157 202 211 121 50 38 38 65 53 37 13 17 49 46 58 342 339 33 344 125 294 248 274 281 223 236 157 126 269 202
312 316 320 319 312 320 329 334 337 348 359 342 339 271 319 195 86 324 301 3 60 40 44 57 31 28 29 22 16 28 56 48 21 51 73 321 10 7 339 3 358 13 339 292 127 98 209
322 316 320 318 308 314 326 327 332 342 352 345 350 347 326 47 311 135 51 1 110 41 60 66 29 38 28 24 18 41 12 338 341 94 170 79 93 135 177 219 254 305 320 330 171 128 188
327 326 324 314 301 310 320 319 331 337 347 329 204 272 193 319 331 22 51 53 85 71 57 29 30 52 42 32 33 16 4 340 350 10 335 83 239 198 235 260 296 284 304 320 297 226 160
324 325 319 308 292 305 316 314 328 335 352 109 336 28 344 286 316 13 48 19 122 69 80 28 69 74 63 81 110 321 19 27 344 338 357 355 301 349 291 292 336 311 306 310 349 349 215
315 318 314 299 289 305 309 302 329 335 3 21 320 331 105 287 343 76 236 107 78 123 50 97 88 82 51 358 313 247 228 236 217 292 322 12 44 24 291 329 1 322 350 26 83 23 331
306 306 306 281 281 300 275 299 326 333 14 351 345 327 59 291 314 194 112 99 88 61 113 100 85 89 254 352 4 16 2 279 269 274 157 300 33 94 260 351 164 224 27 84 84 33 11
305 303 297 267 277 273 265 295 293 301 329 346 336 14 49 293 313 111 108 116 91 64 87 119 91 167 86 47 39 14 351 354 292 225 267 150 110 323 154 235 281 73 21 352 1 29 8
303 294 277 250 272 233 232 285 269 255 283 299 320 328 162 132 304 306 125 136 141 191 354 116 167 142 77 85 63 87 332 320 312 336 218 236 124 139 359 349 225 53 326 305 228 46 350
300 288 254 242 243 230 220 254 234 268 278 306 269 309 237 182 280 51 80 171 142 109 132 94 160 67 59 70 64 137 246 206 321 333 322 286 86 189 234 247 291 340 325 307 91 316 326
297 283 248 230 226 204 223 220 193 236 269 318 244 288 281 205 284 34 35 47 34 64 127 240 48 10 38 59 96 296 304 175 73 235 272 298 196 189 145 217 328 345 30 58 196 265 304
291 275 227 221 212 190 200 184 179 200 189 24 336 346 286 162 240 355 77 60 72 108 130 22 147 106 159 97 192 66 340 325 174 24 290 102 113 263 70 82 21 13 39 18 15 357 325